Regional Weather Roundup
Issued by NWS

Home | Current Version | Previous Version | Text Only | Print | Product List | Glossary On
Versions: 1 2 3 4 5 6 7 8 9 10 11 12 13 14 15 16 17 18 19 20 21 22 23 24 25 26 27 28 29 30 31 32 33 34 35 36 37 38 39 40 41 42 43 44 45 46 47 48 49 50
000
ASUS43 KDMX 040107
RWRIA

WEATHER ROUNDUP FOR IOWA
NATIONAL WEATHER SERVICE DES MOINES IA
800 PM CDT MON AUG 03 2015

NOTE: "FAIR" INDICATES FEW OR NO CLOUDS BELOW 12,000 FEET WITH NO
SIGNIFICANT WEATHER AND/OR OBSTRUCTIONS TO VISIBILITY.

* - THESE STATIONS ARE NOT NWS STATIONS...THUS NOT UNDER NWS
QUALITY CONTROL.  THEY ALSO DO NOT REPORT WEATHER SUCH
AS PRECIPITATION OR FOG.

IAZ001>003-012>014-020>022-031>034-043>046-040200-
   NORTHWEST IOWA

CITY           SKY/WX    TMP DP  RH WIND       PRES   REMARKS
CARROLL *      CLEAR     73  64  73 NW5       29.95S
CHEROKEE *     CLEAR     73  66  78 CALM      29.96R
DENISON *      CLEAR     73  64  73 CALM      29.94S
LE MARS *      CLEAR     77  64  65 CALM      29.96S
ORANGE CITY *  CLEAR     73  63  68 CALM      29.96S
SHELDON *      CLEAR     75  64  69 CALM      29.95R
SIOUX CITY     PTCLDY    76  62  62 SE6       29.94S
SPENCER        CLEAR     76  58  53 W6        29.96R
STORM LAKE *   CLEAR     73  63  68 CALM      29.98R
$$

IAZ055>058-069>071-079>083-090>094-040200-
   SOUTHWEST IOWA

CITY           SKY/WX    TMP DP  RH WIND       PRES   REMARKS
ATLANTIC *     MOCLDY    73  68  83 CALM      29.95S
AUDUBON *      CLEAR     73  66  78 CALM      29.97S
CLARINDA *     CLEAR     75  68  78 CALM      29.95S
COUNCIL BLFS * PTCLDY    75  66  73 NE5       29.95R
CRESTON *      MOCLDY    73  66  78 NE5       29.97R
HARLAN  *      CLOUDY    73  70  88 CALM      29.98S
LAMONI         PTCLDY    76  67  73 CALM      29.94S
RED OAK *      PTCLDY    75  68  78 CALM      29.94S
SHENANDOAH *   CLEAR     75  66  73 CALM      29.94S
$$

IAZ047>049-059>061-072>074-084-040200-
   CENTRAL IOWA

CITY           SKY/WX    TMP DP  RH WIND       PRES   REMARKS
AMES           CLEAR     73  58  59 NW3       29.94S
ANKENY *       CLEAR     75  57  53 NW6       29.94S
CHARITON *     CLEAR     75  66  73 CALM      29.94S
DES MOINES     PTCLDY    77  55  46 N6        29.94R
GRINNELL*      CLEAR     72  61  68 CALM      29.95R
KNOXVILLE *    CLEAR     75  59  57 CALM      29.93R
MARSHALLTOWN   CLEAR     73  63  70 W3        29.93S
PELLA *        CLEAR     72  63  73 N5        29.94S
PERRY *          N/A     75  63  64 CALM      29.95S
$$

IAZ004>006-015-016-023>025-035-036-040200-
   NORTH CENTRAL IOWA

CITY           SKY/WX    TMP DP  RH WIND       PRES   REMARKS
ALGONA *       PTCLDY    77  59  53 CALM      29.95R
CLARION *      CLEAR     73  63  68 NW3       29.95R
ESTHERVILLE    CLEAR     73  59  61 NW5       29.94S
FORT DODGE *   CLEAR     75  59  57 CALM      29.96S
MASON CITY     CLEAR     71  59  65 NW6       29.95R
FOREST CITY *  CLEAR     70  55  60 W3        29.94S
IOWA FALLS *     N/A     72  61  68 W3        29.95S
$$

IAZ007>011-017>019-026>030-037>042-050>054-066-040200-
   NORTHEAST IOWA

CITY           SKY/WX    TMP DP  RH WIND       PRES   REMARKS
CEDAR RAPIDS   CLEAR     70  62  76 W7        29.92R
CHARLES CITY * CLEAR     70  59  68 W5        29.93S
CLINTON *      CLEAR     70  63  78 W6        29.93R
DECORAH *      CLEAR     72  54  53 VRB7      29.91S
DUBUQUE        CLEAR     71  55  56 NW5       29.91R
MONTICELLO *   CLEAR     73  59  60 NW5       29.91R
OELWEIN *      CLEAR     72  61  68 NW5       29.93R
WATERLOO       CLEAR     74  58  57 W5        29.91S
$$

IAZ064-065-067-068-078-040200-
   EAST CENTRAL IOWA

CITY           SKY/WX    TMP DP  RH WIND       PRES   REMARKS
DAVENPORT      CLEAR     70  60  70 W6        29.91R
IOWA CITY      CLEAR     74  57  55 W7        29.93R
MT. PLEASANT * CLEAR     75  55  50 CALM      29.93R
MUSCATINE *    CLEAR     73  59  60 NW3       29.92R
QUAD CITIES    CLEAR     76  54  46 NW7       29.90R
$$

IAZ062-063-075>077-085>089-095>099-040200-
   SOUTHEAST IOWA

CITY           SKY/WX    TMP DP  RH WIND       PRES   REMARKS
BURLINGTON     CLEAR     73  60  63 NW5       29.92R
FAIRFIELD *    CLEAR     72  63  73 NW3       29.93S
FORT MADISON * CLEAR     72  64  78 CALM      29.94R
KEOKUK *       CLEAR     77  63  61 CALM      29.91S
OSKALOOSA *      N/A     70  63  78 CALM      29.94R
CENTERVILLE *  PTCLDY    73  66  78 N3        29.95F
OTTUMWA        CLEAR     73  62  68 N6        29.92R
WASHINGTON *   CLEAR     72  57  60 NW7       29.94R
$$

ABBREVIATIONS USED IN REMARKS
   TC - TEMPERATURES IN CELSIUS
  WCI - WIND CHILL INDEX
   HX - HEAT INDEX
  VSB - VISIBILITY
$$



USA.gov is the U.S. government's official web portal to all federal, state and local government web resources and services.